| time (UTC) | temp F | wind direction | speed MPH | gust MPH | rain 1hr in | rain 24hr in | rain mn in | humidity % | barometer mb |
| 20260901235322 | 83 | 290 | 0.0 | 1.0 | 0.00 | 0.00 | 0.00 | 64 | 1010.3 |
| 20260901234845 | 84 | 291 | 0.0 | 1.0 | 0.00 | 0.00 | 0.00 | 63 | 1010.3 |
| 20260901233850 | 84 | 290 | 0.0 | 1.0 | 0.00 | 0.00 | 0.00 | 62 | 1010.3 |
| 20260901233420 | 85 | 290 | 0.0 | 1.0 | 0.00 | 0.00 | 0.00 | 60 | 1010.4 |
| 20260901232842 | 86 | 290 | 0.0 | 1.0 | 0.00 | 0.00 | 0.00 | 58 | 1010.4 |
| 20260901232405 | 85 | 286 | 0.0 | 2.0 | 0.00 | 0.00 | 0.00 | 60 | 1010.4 |
| 20260901231823 | 85 | 320 | 0.0 | 3.0 | 0.00 | 0.00 | 0.00 | 59 | 1010.4 |
| 20260901231358 | 86 | 310 | 1.0 | 4.0 | 0.00 | 0.00 | 0.00 | 60 | 1010.3 |
| 20260901230859 | 86 | 302 | 0.0 | 4.0 | 0.00 | 0.00 | 0.00 | 57 | 1010.4 |
| 20260901230323 | 86 | 321 | 0.0 | 2.0 | 0.00 | 0.00 | 0.00 | 57 | 1010.4 |
| 20260901225847 | 87 | 290 | 0.0 | 2.0 | 0.00 | 0.00 | 0.00 | 56 | 1010.5 |
| 20260901225355 | 87 | 300 | 0.0 | 7.0 | 0.00 | 0.00 | 0.00 | 54 | 1010.6 |
| 20260901224919 | 88 | 328 | 1.0 | 7.0 | 0.00 | 0.00 | 0.00 | 54 | 1010.5 |
| 20260901224341 | 87 | 292 | 0.0 | 4.0 | 0.00 | 0.00 | 0.00 | 56 | 1010.6 |
| 20260901223908 | 87 | 291 | 1.0 | 7.0 | 0.00 | 0.00 | 0.00 | 55 | 1010.6 |
| 20260901223341 | 88 | 285 | 1.0 | 7.0 | 0.00 | 0.00 | 0.00 | 54 | 1010.6 |
| 20260901222907 | 89 | 328 | 0.0 | 2.0 | 0.00 | 0.00 | 0.00 | 54 | 1010.6 |
| 20260901222410 | 88 | 146 | 0.0 | 2.0 | 0.00 | 0.00 | 0.00 | 54 | 1010.6 |
| 20260901221828 | 87 | 231 | 0.0 | 4.0 | 0.00 | 0.00 | 0.00 | 54 | 1010.5 |
| 20260901221356 | 87 | 289 | 1.0 | 4.0 | 0.00 | 0.00 | 0.00 | 54 | 1010.4 |
| 20260901220920 | 87 | 234 | 0.0 | 2.0 | 0.00 | 0.00 | 0.00 | 54 | 1010.4 |
| 20260901220323 | 87 | 227 | 0.0 | 3.0 | 0.00 | 0.00 | 0.00 | 53 | 1010.4 |
| 20260901215853 | 88 | 293 | 1.0 | 4.0 | 0.00 | 0.00 | 0.00 | 53 | 1010.4 |
| 20260901215403 | 88 | 237 | 0.0 | 4.0 | 0.00 | 0.00 | 0.00 | 51 | 1010.3 |
| 20260901214930 | 89 | 274 | 0.0 | 4.0 | 0.00 | 0.00 | 0.00 | 50 | 1010.3 |
| 20260901214435 | 89 | 286 | 1.0 | 2.0 | 0.00 | 0.00 | 0.00 | 51 | 1010.3 |
| 20260901213825 | 90 | 279 | 0.0 | 4.0 | 0.00 | 0.00 | 0.00 | 51 | 1010.3 |
| 20260901213348 | 90 | 70 | 0.0 | 4.0 | 0.00 | 0.00 | 0.00 | 48 | 1010.3 |
| 20260901212911 | 91 | 160 | 0.0 | 3.0 | 0.00 | 0.00 | 0.00 | 48 | 1010.4 |
| 20260901212442 | 91 | 250 | 0.0 | 4.0 | 0.00 | 0.00 | 0.00 | 50 | 1010.5 |
| 20260901211846 | 90 | 150 | 1.0 | 6.0 | 0.00 | 0.00 | 0.00 | 50 | 1010.4 |
| 20260901211409 | 91 | 267 | 1.0 | 6.0 | 0.00 | 0.00 | 0.00 | 49 | 1010.4 |
| 20260901210825 | 91 | 236 | 1.0 | 6.0 | 0.00 | 0.00 | 0.00 | 50 | 1010.3 |
| 20260901210352 | 90 | 338 | 1.0 | 6.0 | 0.00 | 0.00 | 0.00 | 51 | 1010.4 |
| 20260901205823 | 90 | 202 | 0.0 | 7.0 | 0.00 | 0.00 | 0.00 | 52 | 1010.5 |
| 20260901205348 | 90 | 309 | 0.0 | 7.0 | 0.00 | 0.00 | 0.00 | 51 | 1010.4 |
| 20260901204349 | 90 | 181 | 2.0 | 7.0 | 0.00 | 0.00 | 0.00 | 52 | 1010.6 |
| 20260901203906 | 90 | 288 | 0.0 | 5.0 | 0.00 | 0.00 | 0.00 | 52 | 1010.6 |
| 20260901203325 | 90 | 275 | 1.0 | 8.0 | 0.00 | 0.00 | 0.00 | 53 | 1010.6 |
| 20260901202857 | 91 | 312 | 1.0 | 6.0 | 0.00 | 0.00 | 0.00 | 49 | 1010.6 |
| 20260901202351 | 91 | 150 | 2.0 | 7.0 | 0.00 | 0.00 | 0.00 | 50 | 1010.7 |
| 20260901201905 | 91 | 312 | 0.0 | 4.0 | 0.00 | 0.00 | 0.00 | 51 | 1010.6 |
| 20260901201410 | 91 | 290 | 0.0 | 4.0 | 0.00 | 0.00 | 0.00 | 52 | 1010.6 |
| 20260901200836 | 90 | 250 | 0.0 | 5.0 | 0.00 | 0.00 | 0.00 | 53 | 1010.8 |
| 20260901200403 | 90 | 320 | 1.0 | 6.0 | 0.00 | 0.00 | 0.00 | 49 | 1010.9 |
| 20260901195905 | 90 | 303 | 2.0 | 9.0 | 0.00 | 0.00 | 0.00 | 49 | 1010.9 |
| 20260901195325 | 90 | 231 | 2.0 | 9.0 | 0.00 | 0.00 | 0.00 | 51 | 1011.0 |
| 20260901194853 | 91 | 255 | 2.0 | 7.0 | 0.00 | 0.00 | 0.00 | 47 | 1011.0 |
| 20260901194417 | 91 | 113 | 0.0 | 4.0 | 0.00 | 0.00 | 0.00 | 49 | 1011.0 |
| 20260901193834 | 91 | 269 | 0.0 | 4.0 | 0.00 | 0.00 | 0.00 | 50 | 1010.9 |
| 20260901193338 | 90 | 226 | 0.0 | 3.0 | 0.00 | 0.00 | 0.00 | 51 | 1011.0 |
| 20260901192846 | 91 | 312 | 0.0 | 5.0 | 0.00 | 0.00 | 0.00 | 50 | 1011.1 |
| 20260901191844 | 91 | 286 | 0.0 | 2.0 | 0.00 | 0.00 | 0.00 | 50 | 1011.1 |
| 20260901190844 | 91 | 223 | 0.0 | 2.0 | 0.00 | 0.00 | 0.00 | 48 | 1011.1 |
| 20260901185832 | 91 | 100 | 0.0 | 2.0 | 0.00 | 0.00 | 0.00 | 48 | 1011.3 |
| 20260901185341 | 90 | 282 | 0.0 | 2.0 | 0.00 | 0.00 | 0.00 | 48 | 1011.3 |
| 20260901184902 | 90 | 210 | 0.0 | 2.0 | 0.00 | 0.00 | 0.00 | 46 | 1011.4 |
| 20260901184332 | 90 | 302 | 0.0 | 4.0 | 0.00 | 0.00 | 0.00 | 46 | 1011.5 |
| 20260901183836 | 90 | 226 | 1.0 | 4.0 | 0.00 | 0.00 | 0.00 | 47 | 1011.4 |
| 20260901183400 | 90 | 282 | 0.0 | 2.0 | 0.00 | 0.00 | 0.00 | 48 | 1011.5 |
| 20260901182926 | 90 | 325 | 0.0 | 5.0 | 0.00 | 0.00 | 0.00 | 51 | 1011.6 |
| 20260901182325 | 90 | 289 | 1.0 | 3.0 | 0.00 | 0.00 | 0.00 | 50 | 1011.7 |
| 20260901181849 | 90 | 230 | 0.0 | 2.0 | 0.00 | 0.00 | 0.00 | 54 | 1011.6 |
| 20260901180844 | 89 | 227 | 0.0 | 2.0 | 0.00 | 0.00 | 0.00 | 55 | 1011.6 |
| 20260901180327 | 89 | 282 | 0.0 | 3.0 | 0.00 | 0.00 | 0.00 | 58 | 1011.7 |
| 20260901175851 | 89 | 191 | 0.0 | 3.0 | 0.00 | 0.00 | 0.00 | 57 | 1011.8 |
| 20260901175401 | 88 | 237 | 0.0 | 1.0 | 0.00 | 0.00 | 0.00 | 56 | 1011.8 |
| 20260901174919 | 89 | 230 | 0.0 | 1.0 | 0.00 | 0.00 | 0.00 | 56 | 1011.9 |
| 20260901174323 | 88 | 106 | 0.0 | 2.0 | 0.00 | 0.00 | 0.00 | 56 | 1012.0 |
| 20260901173845 | 87 | 215 | 0.0 | 1.0 | 0.00 | 0.00 | 0.00 | 57 | 1012.0 |
| 20260901172845 | 86 | 89 | 0.0 | 4.0 | 0.00 | 0.00 | 0.00 | 58 | 1012.2 |
| 20260901172418 | 86 | 256 | 1.0 | 4.0 | 0.00 | 0.00 | 0.00 | 60 | 1012.2 |
| 20260901171941 | 87 | 304 | 2.0 | 4.0 | 0.00 | 0.00 | 0.00 | 59 | 1012.3 |
| 20260901171341 | 87 | 219 | 0.0 | 2.0 | 0.00 | 0.00 | 0.00 | 58 | 1012.4 |
| 20260901170349 | 87 | 94 | 0.0 | 1.0 | 0.00 | 0.00 | 0.00 | 63 | 1012.6 |
| 20260901165851 | 86 | 231 | 0.0 | 1.0 | 0.00 | 0.00 | 0.00 | 66 | 1012.6 |
| 20260901165353 | 85 | 275 | 0.0 | 1.0 | 0.00 | 0.00 | 0.00 | 66 | 1012.6 |
| 20260901164916 | 85 | 285 | 0.0 | 2.0 | 0.00 | 0.00 | 0.00 | 68 | 1012.6 |
| 20260901164342 | 85 | 24 | 0.0 | 2.0 | 0.00 | 0.00 | 0.00 | 64 | 1012.6 |
| 20260901163345 | 84 | 289 | 0.0 | 4.0 | 0.00 | 0.00 | 0.00 | 66 | 1012.7 |
| 20260901162856 | 84 | 299 | 1.0 | 4.0 | 0.00 | 0.00 | 0.00 | 66 | 1012.7 |
| 20260901162358 | 85 | 283 | 0.0 | 3.0 | 0.00 | 0.00 | 0.00 | 65 | 1012.8 |
| 20260901161921 | 85 | 309 | 0.0 | 1.0 | 0.00 | 0.00 | 0.00 | 65 | 1012.8 |
| 20260901161336 | 84 | 309 | 0.0 | 2.0 | 0.00 | 0.00 | 0.00 | 67 | 1012.9 |
| 20260901160856 | 84 | 305 | 1.0 | 2.0 | 0.00 | 0.00 | 0.00 | 67 | 1012.9 |
| 20260901160419 | 84 | 286 | 0.0 | 2.0 | 0.00 | 0.00 | 0.00 | 66 | 1013.0 |
| 20260901155841 | 84 | 35 | 0.0 | 1.0 | 0.00 | 0.00 | 0.00 | 70 | 1013.0 |
| 20260901155406 | 83 | 35 | 0.0 | 1.0 | 0.00 | 0.00 | 0.00 | 72 | 1013.0 |
| 20260901154830 | 83 | 274 | 0.0 | 1.0 | 0.00 | 0.00 | 0.00 | 71 | 1012.8 |
| 20260901154358 | 83 | 285 | 0.0 | 1.0 | 0.00 | 0.00 | 0.00 | 69 | 1012.9 |
| 20260901153905 | 83 | 307 | 0.0 | 0.0 | 0.00 | 0.00 | 0.00 | 71 | 1012.8 |
| 20260901153408 | 83 | 284 | 0.0 | 1.0 | 0.00 | 0.00 | 0.00 | 70 | 1012.9 |
| 20260901152923 | 82 | 283 | 0.0 | 1.0 | 0.00 | 0.00 | 0.00 | 72 | 1012.9 |
| 20260901152412 | 82 | 283 | 0.0 | 1.0 | 0.00 | 0.00 | 0.00 | 70 | 1012.9 |
| 20260901151917 | 81 | 75 | 0.0 | 0.0 | 0.00 | 0.00 | 0.00 | 73 | 1012.9 |
| 20260901151405 | 81 | 75 | 0.0 | 1.0 | 0.00 | 0.00 | 0.00 | 75 | 1012.9 |
| 20260901150823 | 80 | 75 | 0.0 | 1.0 | 0.00 | 0.00 | 0.00 | 74 | 1012.8 |
| 20260901150346 | 80 | 354 | 0.0 | 2.0 | 0.00 | 0.01 | 0.00 | 77 | 1012.9 |
| 20260901145852 | 80 | 354 | 0.0 | 1.0 | 0.00 | 0.01 | 0.00 | 77 | 1012.8 |
| 20260901145358 | 80 | 11 | 0.0 | 1.0 | 0.00 | 0.01 | 0.00 | 78 | 1012.9 |
| 20260901144921 | 79 | 321 | 0.0 | 1.0 | 0.00 | 0.01 | 0.00 | 82 | 1012.9 |
| 20260901144339 | 78 | 321 | 0.0 | 1.0 | 0.00 | 0.01 | 0.00 | 80 | 1012.9 |
| 20260901143906 | 78 | 319 | 0.0 | 1.0 | 0.00 | 0.01 | 0.00 | 82 | 1013.0 |
| 20260901142844 | 77 | 81 | 0.0 | 1.0 | 0.00 | 0.01 | 0.00 | 87 | 1013.0 |
| 20260901141846 | 75 | 24 | 0.0 | 1.0 | 0.00 | 0.01 | 0.00 | 98 | 1012.9 |
| 20260901140842 | 73 | 13 | 0.0 | 1.0 | 0.00 | 0.01 | 0.00 | 99 | 1013.0 |
| 20260901135839 | 73 | 323 | 0.0 | 0.0 | 0.00 | 0.01 | 0.00 | 99 | 1013.0 |
| 20260901135408 | 72 | 311 | 0.0 | 1.0 | 0.00 | 0.01 | 0.00 | 99 | 1013.0 |
| 20260901134827 | 72 | 312 | 0.0 | 1.0 | 0.00 | 0.01 | 0.00 | 99 | 1013.1 |
| 20260901134351 | 72 | 295 | 0.0 | 0.0 | 0.00 | 0.01 | 0.00 | 99 | 1013.1 |
| 20260901133913 | 71 | 295 | 0.0 | 0.0 | 0.00 | 0.01 | 0.00 | 99 | 1013.2 |
| 20260901133337 | 70 | 295 | 0.0 | 0.0 | 0.00 | 0.01 | 0.00 | 99 | 1013.2 |
| 20260901132341 | 69 | 295 | 0.0 | 0.0 | 0.00 | 0.01 | 0.00 | 99 | 1013.2 |
| 20260901131906 | 68 | 295 | 0.0 | 0.0 | 0.00 | 0.01 | 0.00 | 99 | 1013.2 |
| 20260901131414 | 68 | 295 | 0.0 | 0.0 | 0.00 | 0.01 | 0.00 | 99 | 1013.1 |
| 20260901130833 | 67 | 295 | 0.0 | 0.0 | 0.00 | 0.01 | 0.00 | 99 | 1013.1 |
| 20260901130402 | 67 | 295 | 0.0 | 0.0 | 0.00 | 0.01 | 0.00 | 99 | 1013.1 |
| 20260901125934 | 66 | 295 | 0.0 | 0.0 | 0.00 | 0.01 | 0.00 | 99 | 1013.1 |
| 20260901125336 | 65 | 295 | 0.0 | 0.0 | 0.00 | 0.01 | 0.00 | 99 | 1013.0 |
| 20260901124900 | 64 | 295 | 0.0 | 0.0 | 0.00 | 0.01 | 0.00 | 99 | 1012.9 |
| 20260901124428 | 64 | 294 | 0.0 | 0.0 | 0.00 | 0.01 | 0.00 | 99 | 1012.8 |
| 20260901123930 | 63 | 295 | 0.0 | 0.0 | 0.00 | 0.01 | 0.00 | 99 | 1012.7 |
| 20260901123437 | 62 | 295 | 0.0 | 0.0 | 0.00 | 0.01 | 0.00 | 99 | 1012.7 |
| 20260901122834 | 62 | 295 | 0.0 | 0.0 | 0.00 | 0.01 | 0.00 | 99 | 1012.7 |
| 20260901121842 | 61 | 295 | 0.0 | 0.0 | 0.00 | 0.01 | 0.00 | 99 | 1012.6 |
| 20260901121341 | 61 | 295 | 0.0 | 0.0 | 0.00 | 0.01 | 0.00 | 99 | 1012.6 |
| 20260901120343 | 61 | 295 | 0.0 | 0.0 | 0.00 | 0.01 | 0.00 | 99 | 1012.6 |
| 20260901115343 | 61 | 295 | 0.0 | 0.0 | 0.00 | 0.01 | 0.00 | 98 | 1012.5 |
| 20260901114911 | 61 | 294 | 0.0 | 0.0 | 0.00 | 0.01 | 0.00 | 98 | 1012.6 |
| 20260901114328 | 61 | 295 | 0.0 | 0.0 | 0.00 | 0.01 | 0.00 | 98 | 1012.4 |
| 20260901113859 | 61 | 295 | 0.0 | 0.0 | 0.00 | 0.01 | 0.00 | 98 | 1012.4 |
| 20260901113405 | 61 | 295 | 0.0 | 0.0 | 0.00 | 0.01 | 0.00 | 98 | 1012.2 |
| 20260901112822 | 61 | 295 | 0.0 | 0.0 | 0.00 | 0.01 | 0.00 | 98 | 1012.1 |
| 20260901112345 | 61 | 295 | 0.0 | 0.0 | 0.00 | 0.01 | 0.00 | 98 | 1012.1 |
| 20260901111344 | 61 | 294 | 0.0 | 0.0 | 0.00 | 0.01 | 0.00 | 98 | 1012.0 |
| 20260901110344 | 61 | 295 | 0.0 | 0.0 | 0.00 | 0.01 | 0.00 | 98 | 1011.9 |
| 20260901105908 | 62 | 295 | 0.0 | 0.0 | 0.00 | 0.01 | 0.00 | 98 | 1011.9 |
| 20260901105322 | 62 | 295 | 0.0 | 0.0 | 0.00 | 0.01 | 0.00 | 98 | 1011.9 |
| 20260901104841 | 62 | 295 | 0.0 | 0.0 | 0.00 | 0.01 | 0.00 | 98 | 1011.9 |
| 20260901104408 | 62 | 295 | 0.0 | 0.0 | 0.00 | 0.01 | 0.00 | 98 | 1011.9 |
| 20260901103827 | 62 | 295 | 0.0 | 0.0 | 0.00 | 0.01 | 0.00 | 98 | 1011.8 |
| 20260901103350 | 62 | 295 | 0.0 | 0.0 | 0.00 | 0.01 | 0.00 | 98 | 1011.8 |
| 20260901102914 | 62 | 295 | 0.0 | 0.0 | 0.00 | 0.01 | 0.00 | 98 | 1011.7 |
| 20260901102338 | 62 | 295 | 0.0 | 0.0 | 0.00 | 0.01 | 0.00 | 98 | 1011.7 |
| 20260901101342 | 63 | 295 | 0.0 | 0.0 | 0.00 | 0.01 | 0.00 | 98 | 1011.7 |
| 20260901100914 | 63 | 295 | 0.0 | 0.0 | 0.00 | 0.01 | 0.00 | 98 | 1011.6 |
| 20260901100334 | 63 | 295 | 0.0 | 0.0 | 0.00 | 0.01 | 0.00 | 98 | 1011.6 |
| 20260901095844 | 63 | 295 | 0.0 | 0.0 | 0.00 | 0.01 | 0.00 | 98 | 1011.5 |
| 20260901095403 | 63 | 295 | 0.0 | 0.0 | 0.00 | 0.01 | 0.00 | 98 | 1011.5 |
| 20260901094914 | 63 | 295 | 0.0 | 0.0 | 0.00 | 0.01 | 0.00 | 98 | 1011.5 |
| 20260901094334 | 63 | 295 | 0.0 | 0.0 | 0.00 | 0.01 | 0.00 | 98 | 1011.6 |
| 20260901093842 | 63 | 295 | 0.0 | 0.0 | 0.00 | 0.01 | 0.00 | 98 | 1011.7 |
| 20260901092845 | 64 | 295 | 0.0 | 0.0 | 0.00 | 0.01 | 0.00 | 98 | 1011.7 |
| 20260901092352 | 64 | 295 | 0.0 | 0.0 | 0.00 | 0.01 | 0.00 | 98 | 1011.6 |
| 20260901091914 | 64 | 295 | 0.0 | 0.0 | 0.00 | 0.01 | 0.00 | 98 | 1011.5 |
| 20260901091332 | 65 | 294 | 0.0 | 0.0 | 0.00 | 0.01 | 0.00 | 98 | 1011.5 |
| 20260901090837 | 65 | 295 | 0.0 | 0.0 | 0.00 | 0.01 | 0.00 | 98 | 1011.6 |
| 20260901090343 | 65 | 295 | 0.0 | 0.0 | 0.00 | 0.06 | 0.00 | 98 | 1011.6 |
| 20260901085342 | 65 | 295 | 0.0 | 0.0 | 0.00 | 0.06 | 0.00 | 98 | 1011.5 |
| 20260901084335 | 65 | 295 | 0.0 | 0.0 | 0.00 | 0.06 | 0.00 | 98 | 1011.5 |
| 20260901083853 | 65 | 295 | 0.0 | 0.0 | 0.00 | 0.06 | 0.00 | 98 | 1011.5 |
| 20260901083355 | 65 | 295 | 0.0 | 0.0 | 0.00 | 0.06 | 0.00 | 98 | 1011.5 |
| 20260901082906 | 65 | 295 | 0.0 | 0.0 | 0.00 | 0.06 | 0.00 | 98 | 1011.3 |
| 20260901082323 | 65 | 295 | 0.0 | 0.0 | 0.00 | 0.06 | 0.00 | 98 | 1011.2 |
| 20260901081841 | 66 | 295 | 0.0 | 0.0 | 0.00 | 0.06 | 0.00 | 98 | 1011.2 |
| 20260901080846 | 66 | 295 | 0.0 | 0.0 | 0.00 | 0.06 | 0.00 | 98 | 1011.3 |
| 20260901080413 | 66 | 295 | 0.0 | 0.0 | 0.00 | 0.06 | 0.00 | 98 | 1011.4 |
| 20260901075829 | 66 | 295 | 0.0 | 0.0 | 0.00 | 0.06 | 0.00 | 98 | 1011.3 |
| 20260901075358 | 66 | 295 | 0.0 | 0.0 | 0.00 | 0.06 | 0.00 | 98 | 1011.4 |
| 20260901074920 | 66 | 295 | 0.0 | 0.0 | 0.00 | 0.06 | 0.00 | 98 | 1011.4 |
| 20260901074349 | 66 | 295 | 0.0 | 0.0 | 0.00 | 0.06 | 0.00 | 98 | 1011.4 |
| 20260901073851 | 66 | 295 | 0.0 | 0.0 | 0.00 | 0.06 | 0.00 | 98 | 1011.4 |
| 20260901073351 | 67 | 295 | 0.0 | 0.0 | 0.00 | 0.06 | 0.00 | 98 | 1011.4 |
| 20260901072336 | 67 | 295 | 0.0 | 0.0 | 0.00 | 0.06 | 0.00 | 98 | 1011.3 |
| 20260901071856 | 67 | 295 | 0.0 | 0.0 | 0.00 | 0.06 | 0.00 | 98 | 1011.2 |
| 20260901071404 | 67 | 295 | 0.0 | 0.0 | 0.00 | 0.06 | 0.00 | 98 | 1011.2 |
| 20260901070823 | 67 | 295 | 0.0 | 0.0 | 0.00 | 0.06 | 0.00 | 98 | 1011.1 |
| 20260901070350 | 67 | 295 | 0.0 | 0.0 | 0.00 | 0.06 | 0.00 | 98 | 1011.1 |
| 20260901065845 | 67 | 295 | 0.0 | 0.0 | 0.00 | 0.06 | 0.00 | 98 | 1011.1 |
| 20260901065349 | 67 | 295 | 0.0 | 0.0 | 0.00 | 0.06 | 0.00 | 98 | 1011.0 |
| 20260901064853 | 68 | 295 | 0.0 | 0.0 | 0.00 | 0.06 | 0.00 | 98 | 1011.0 |
| 20260901064338 | 68 | 295 | 0.0 | 0.0 | 0.00 | 0.06 | 0.00 | 98 | 1011.1 |
| 20260901063825 | 68 | 295 | 0.0 | 0.0 | 0.00 | 0.06 | 0.00 | 98 | 1011.0 |
| 20260901063330 | 68 | 295 | 0.0 | 0.0 | 0.00 | 0.06 | 0.00 | 98 | 1011.1 |
| 20260901062837 | 68 | 295 | 0.0 | 0.0 | 0.00 | 0.06 | 0.00 | 98 | 1011.1 |
| 20260901062323 | 68 | 295 | 0.0 | 0.0 | 0.00 | 0.06 | 0.00 | 98 | 1011.2 |
| 20260901061827 | 68 | 295 | 0.0 | 0.0 | 0.00 | 0.06 | 0.00 | 98 | 1011.2 |
| 20260901061331 | 69 | 295 | 0.0 | 0.0 | 0.00 | 0.06 | 0.00 | 98 | 1011.2 |
| 20260901060841 | 69 | 295 | 0.0 | 0.0 | 0.00 | 0.06 | 0.00 | 98 | 1011.3 |
| 20260901060328 | 69 | 295 | 0.0 | 0.0 | 0.00 | 0.06 | 0.06 | 98 | 1011.3 |
| 20260901055834 | 69 | 295 | 0.0 | 0.0 | 0.00 | 0.06 | 0.06 | 98 | 1011.3 |
| 20260901055340 | 69 | 295 | 0.0 | 0.0 | 0.00 | 0.06 | 0.06 | 98 | 1011.3 |
| 20260901054825 | 69 | 295 | 0.0 | 0.0 | 0.00 | 0.06 | 0.06 | 98 | 1011.3 |
| 20260901054330 | 69 | 295 | 0.0 | 0.0 | 0.00 | 0.06 | 0.06 | 98 | 1011.3 |
| 20260901053856 | 69 | 295 | 0.0 | 0.0 | 0.00 | 0.06 | 0.06 | 98 | 1011.2 |
| 20260901053400 | 69 | 295 | 0.0 | 0.0 | 0.00 | 0.06 | 0.06 | 98 | 1011.2 |
| 20260901052825 | 69 | 295 | 0.0 | 0.0 | 0.00 | 0.06 | 0.06 | 98 | 1011.1 |
| 20260901052331 | 69 | 295 | 0.0 | 0.0 | 0.00 | 0.06 | 0.06 | 98 | 1011.1 |
| 20260901051838 | 70 | 295 | 0.0 | 0.0 | 0.00 | 0.06 | 0.06 | 98 | 1011.1 |
| 20260901051344 | 69 | 295 | 0.0 | 0.0 | 0.00 | 0.06 | 0.06 | 98 | 1011.0 |
| 20260901050848 | 70 | 295 | 0.0 | 0.0 | 0.00 | 0.06 | 0.06 | 98 | 1011.1 |
| 20260901050332 | 70 | 295 | 0.0 | 0.0 | 0.00 | 0.06 | 0.06 | 98 | 1011.1 |
| 20260901045831 | 70 | 295 | 0.0 | 0.0 | 0.00 | 0.06 | 0.06 | 98 | 1011.0 |
| 20260901045339 | 70 | 295 | 0.0 | 0.0 | 0.00 | 0.06 | 0.06 | 98 | 1011.0 |
| 20260901044343 | 70 | 295 | 0.0 | 0.0 | 0.00 | 0.06 | 0.06 | 98 | 1011.0 |
| 20260901043340 | 70 | 295 | 0.0 | 0.0 | 0.00 | 0.06 | 0.06 | 98 | 1011.1 |
| 20260901042843 | 71 | 295 | 0.0 | 0.0 | 0.00 | 0.06 | 0.06 | 98 | 1011.0 |
| 20260901041842 | 71 | 295 | 0.0 | 0.0 | 0.00 | 0.06 | 0.06 | 98 | 1011.1 |
| 20260901040841 | 71 | 295 | 0.0 | 0.0 | 0.00 | 0.06 | 0.06 | 98 | 1011.1 |
| 20260901040406 | 71 | 295 | 0.0 | 0.0 | 0.00 | 0.06 | 0.06 | 97 | 1011.0 |
| 20260901035914 | 71 | 295 | 0.0 | 0.0 | 0.00 | 0.06 | 0.06 | 97 | 1011.0 |
| 20260901035337 | 71 | 295 | 0.0 | 0.0 | 0.00 | 0.06 | 0.06 | 97 | 1011.0 |
| 20260901034904 | 72 | 295 | 0.0 | 0.0 | 0.00 | 0.06 | 0.06 | 97 | 1011.0 |
| 20260901034420 | 72 | 295 | 0.0 | 0.0 | 0.00 | 0.06 | 0.06 | 97 | 1010.9 |
| 20260901033939 | 72 | 295 | 0.0 | 0.0 | 0.00 | 0.06 | 0.06 | 97 | 1011.0 |
| 20260901033342 | 72 | 295 | 0.0 | 0.0 | 0.00 | 0.06 | 0.06 | 97 | 1011.0 |
| 20260901032906 | 72 | 295 | 0.0 | 0.0 | 0.00 | 0.06 | 0.06 | 97 | 1011.0 |
| 20260901031844 | 72 | 295 | 0.0 | 0.0 | 0.00 | 0.06 | 0.06 | 97 | 1011.2 |
| 20260901031347 | 73 | 295 | 0.0 | 0.0 | 0.00 | 0.06 | 0.06 | 97 | 1011.1 |
| 20260901030912 | 73 | 295 | 0.0 | 0.0 | 0.00 | 0.06 | 0.06 | 97 | 1011.1 |
| 20260901030439 | 73 | 295 | 0.0 | 0.0 | 0.00 | 0.07 | 0.06 | 97 | 1011.1 |
| 20260901025843 | 73 | 295 | 0.0 | 0.0 | 0.00 | 0.07 | 0.06 | 97 | 1011.0 |
| 20260901025409 | 73 | 295 | 0.0 | 0.0 | 0.00 | 0.07 | 0.06 | 97 | 1011.0 |
| 20260901024825 | 73 | 295 | 0.0 | 0.0 | 0.00 | 0.07 | 0.06 | 97 | 1011.0 |
| 20260901024356 | 73 | 295 | 0.0 | 0.0 | 0.00 | 0.07 | 0.06 | 97 | 1011.0 |
| 20260901023904 | 73 | 295 | 0.0 | 0.0 | 0.00 | 0.07 | 0.06 | 97 | 1011.1 |
| 20260901022851 | 73 | 295 | 0.0 | 0.0 | 0.00 | 0.07 | 0.06 | 97 | 1011.1 |
| 20260901022415 | 73 | 295 | 0.0 | 0.0 | 0.00 | 0.07 | 0.06 | 97 | 1011.1 |
| 20260901021828 | 73 | 295 | 0.0 | 0.0 | 0.00 | 0.07 | 0.06 | 97 | 1011.1 |
| 20260901021337 | 73 | 295 | 0.0 | 0.0 | 0.00 | 0.07 | 0.06 | 97 | 1011.0 |
| 20260901020900 | 73 | 295 | 0.0 | 0.0 | 0.00 | 0.07 | 0.06 | 97 | 1011.0 |
| 20260901020427 | 74 | 295 | 0.0 | 0.0 | 0.00 | 0.07 | 0.06 | 97 | 1011.0 |
| 20260901015854 | 74 | 295 | 0.0 | 0.0 | 0.00 | 0.07 | 0.06 | 97 | 1011.0 |
| 20260901015323 | 74 | 295 | 0.0 | 0.0 | 0.00 | 0.07 | 0.06 | 97 | 1011.0 |
| 20260901014849 | 74 | 295 | 0.0 | 0.0 | 0.00 | 0.07 | 0.06 | 97 | 1011.0 |
| 20260901013845 | 74 | 295 | 0.0 | 0.0 | 0.00 | 0.07 | 0.06 | 96 | 1010.9 |
| 20260901012844 | 75 | 295 | 0.0 | 0.0 | 0.00 | 0.07 | 0.06 | 96 | 1010.8 |
| 20260901012411 | 75 | 295 | 0.0 | 0.0 | 0.00 | 0.07 | 0.06 | 96 | 1010.8 |
| 20260901011828 | 75 | 295 | 0.0 | 0.0 | 0.00 | 0.07 | 0.06 | 96 | 1010.6 |
| 20260901011347 | 75 | 295 | 0.0 | 0.0 | 0.00 | 0.07 | 0.06 | 96 | 1010.5 |
| 20260901010344 | 75 | 295 | 0.0 | 0.0 | 0.00 | 0.07 | 0.06 | 95 | 1010.3 |
| 20260901005913 | 76 | 295 | 0.0 | 0.0 | 0.00 | 0.07 | 0.06 | 95 | 1010.2 |
| 20260901005338 | 76 | 295 | 0.0 | 0.0 | 0.00 | 0.07 | 0.06 | 95 | 1010.1 |
| 20260901004908 | 76 | 295 | 0.0 | 0.0 | 0.00 | 0.07 | 0.06 | 94 | 1010.0 |
| 20260901003845 | 77 | 295 | 0.0 | 0.0 | 0.00 | 0.07 | 0.06 | 93 | 1010.0 |
| 20260901003405 | 77 | 295 | 0.0 | 0.0 | 0.00 | 0.07 | 0.06 | 93 | 1009.9 |
| 20260901002823 | 78 | 295 | 0.0 | 0.0 | 0.00 | 0.07 | 0.06 | 92 | 1009.9 |
| 20260901002349 | 78 | 295 | 0.0 | 0.0 | 0.00 | 0.07 | 0.06 | 92 | 1009.9 |
| 20260901001913 | 79 | 295 | 0.0 | 0.0 | 0.00 | 0.07 | 0.06 | 91 | 1009.8 |
| 20260901001333 | 79 | 294 | 0.0 | 0.0 | 0.00 | 0.07 | 0.06 | 90 | 1009.8 |
| 20260901000855 | 80 | 295 | 0.0 | 0.0 | 0.00 | 0.07 | 0.06 | 89 | 1009.7 |
| 20260901000420 | 81 | 295 | 0.0 | 0.0 | 0.00 | 0.07 | 0.06 | 88 | 1009.7 |
| 20260831235836 | 81 | 295 | 0.0 | 0.0 | 0.00 | 0.07 | 0.06 | 86 | 1009.8 |